Change the Weather History Date:

Tuesday, October 9, 2012

  Actual Average Record
Temperature  
Mean Temperature 46 °F -  
Max Temperature 51 °F 42 °F 57 °F (2006)
Min Temperature 39 °F 28 °F 16 °F (1951)
Degree Days  
Heating Degree Days 19    
Moisture  
Dew Point 43 °F    
Average Humidity 94    
Maximum Humidity 100    
Minimum Humidity 68    
Precipitation  
Precipitation 0.00 in - - ()
Sea Level Pressure  
Sea Level Pressure 30.15 in    
Wind  
Wind Speed 0 mph (West)    
Max Wind Speed 5 mph    
Max Gust Speed -    
Visibility 6 miles    
Events      
Averages and records for this station are not official NWS values.
T = Trace of Precipitation, MM = Missing Value Source: NWS Daily Summary

Daily Weather History Graph

Daily Weather History Graph

Search for Another Location

Airport or City:

Trip Planner

Search our weather history database for the weather conditions in past years. The results will help you decide how hot, cold, wet, or windy it might be!

Date:

Astronomy

Oct. 09, 2012 Rise Set
Actual Time 8:31 AM AKDT 7:02 PM AKDT
Civil Twilight 7:46 AM AKDT 7:47 PM AKDT
Nautical Twilight 6:54 AM AKDT 8:39 PM AKDT
Astronomical Twilight 6:00 AM AKDT 9:32 PM AKDT
Moon 12:31 AM AKDT (10/9) 5:08 PM AKDT (10/9)
Length of Visible Light 12h 01m
Length of Day
10h 31m
Waning Crescent, 35% of the Moon is Illuminated
Oct 9
Waning Crescent
Oct 15
New
Oct 21
First Quarter
Oct 29
Full
Nov 6
Last Quarter

Hourly Weather History & Observations

Time (AKDT) Temp. Dew Point Humidity Pressure Visibility Wind Dir Wind Speed Gust Speed Precip Events Conditions
12:03 AM 44.6 °F 44.6 °F 100% 30.18 in 1.8 mi Calm Calm - N/A   Overcast
12:12 AM 44.6 °F 44.6 °F 100% 30.18 in 1.8 mi Calm Calm - N/A   Overcast
12:53 AM 44.1 °F 43.0 °F 96% 30.19 in 1.0 mi Calm Calm - N/A   Overcast
1:13 AM 44.6 °F 44.6 °F 100% 30.18 in 2.5 mi Calm Calm - N/A   Overcast
1:21 AM 44.6 °F 44.6 °F 100% 30.17 in 3.0 mi Calm Calm - N/A   Overcast
1:53 AM 44.1 °F 44.1 °F 100% 30.19 in 4.0 mi Calm Calm - N/A   Overcast
2:08 AM 44.6 °F 44.6 °F 100% 30.17 in 2.0 mi Calm Calm - N/A   Overcast
2:15 AM 44.6 °F 44.6 °F 100% 30.17 in 1.5 mi Calm Calm - N/A   Overcast
2:23 AM 42.8 °F 42.8 °F 100% 30.17 in 3.0 mi Calm Calm - N/A   Overcast
2:35 AM 42.8 °F 42.8 °F 100% 30.17 in 3.0 mi Calm Calm - N/A   Overcast
2:53 AM 43.0 °F 43.0 °F 100% 30.19 in 4.0 mi Calm Calm - N/A   Overcast
3:36 AM 44.6 °F 42.8 °F 93% 30.16 in 3.0 mi Calm Calm - N/A   Overcast
3:48 AM 42.8 °F 42.8 °F 100% 30.16 in 3.0 mi Calm Calm - N/A   Overcast
3:53 AM 43.0 °F 43.0 °F 100% 30.18 in 3.0 mi Calm Calm - N/A   Overcast
4:37 AM 44.6 °F 42.8 °F 93% 30.16 in 2.5 mi Calm Calm - N/A   Overcast
4:53 AM 44.1 °F 43.0 °F 96% 30.18 in 5.0 mi Calm Calm - N/A   Overcast
5:44 AM 42.8 °F 42.8 °F 100% 30.15 in 4.0 mi Calm Calm - N/A   Overcast
5:53 AM 43.0 °F 43.0 °F 100% 30.16 in 3.0 mi Calm Calm - N/A   Overcast
6:53 AM 43.0 °F 43.0 °F 100% 30.16 in 10.0 mi Calm Calm - N/A   Overcast
7:06 AM 42.8 °F 42.8 °F 100% 30.14 in 10.0 mi Calm Calm - N/A   Overcast
7:31 AM 42.8 °F 42.8 °F 100% 30.14 in 2.5 mi Calm Calm - N/A   Overcast
7:40 AM 42.8 °F 42.8 °F 100% 30.14 in 1.8 mi Calm Calm - N/A   Overcast
7:45 AM 42.8 °F 42.8 °F 100% 30.14 in 3.0 mi Calm Calm - N/A   Overcast
7:53 AM 42.1 °F 42.1 °F 100% 30.16 in 2.0 mi Calm Calm - N/A   Overcast
8:00 AM 42.8 °F 42.8 °F 100% 30.14 in 3.0 mi Calm Calm - N/A   Overcast
8:17 AM 42.8 °F 42.8 °F 100% 30.15 in 3.0 mi Calm Calm - N/A   Overcast
8:53 AM 42.1 °F 41.0 °F 96% 30.16 in 10.0 mi Calm Calm - N/A   Overcast
9:18 AM 42.8 °F 41.0 °F 93% 30.14 in 10.0 mi Calm Calm - N/A   Overcast
9:27 AM 42.8 °F 42.8 °F 100% 30.14 in 10.0 mi Calm Calm - N/A   Overcast
9:28 AM 42.8 °F 42.8 °F 100% 30.14 in 10.0 mi Calm Calm - N/A   Overcast
9:53 AM 42.1 °F 41.0 °F 96% 30.17 in 10.0 mi Calm Calm - N/A   Overcast
10:53 AM 43.0 °F 42.1 °F 97% 30.17 in 10.0 mi Calm Calm - N/A   Overcast
11:53 AM 44.1 °F 43.0 °F 96% 30.17 in 10.0 mi Calm Calm - N/A   Overcast
12:06 PM 44.6 °F 42.8 °F 93% 30.16 in 10.0 mi Calm Calm - N/A   Overcast
12:42 PM 46.4 °F 44.6 °F 93% 30.15 in 10.0 mi Calm Calm - N/A   Overcast
12:53 PM 46.9 °F 44.1 °F 90% 30.17 in 10.0 mi Calm Calm - N/A   Overcast
1:53 PM 48.0 °F 44.1 °F 86% 30.16 in 10.0 mi Calm Calm - N/A   Partly Cloudy
2:01 PM 48.2 °F 44.6 °F 87% 30.14 in 10.0 mi Calm Calm - N/A   Scattered Clouds
2:23 PM 48.2 °F 44.6 °F 87% 30.13 in 10.0 mi Calm Calm - N/A   Mostly Cloudy
2:49 PM 48.2 °F 44.6 °F 87% 30.13 in 10.0 mi Calm Calm - N/A   Scattered Clouds
2:53 PM 48.9 °F 45.0 °F 86% 30.15 in 10.0 mi Calm Calm - N/A   Scattered Clouds
3:53 PM 50.0 °F 45.0 °F 83% 30.14 in 10.0 mi West 4.6 mph - N/A   Partly Cloudy
4:53 PM 51.1 °F 41.0 °F 68% 30.13 in 10.0 mi Calm Calm - N/A   Clear
5:53 PM 50.0 °F 39.9 °F 68% 30.12 in 10.0 mi Calm Calm - N/A   Overcast
6:53 PM 48.0 °F 43.0 °F 83% 30.11 in 10.0 mi Calm Calm - N/A   Clear
7:53 PM 46.0 °F 41.0 °F 83% 30.11 in 10.0 mi Calm Calm - N/A   Clear
8:53 PM 45.0 °F 37.9 °F 76% 30.10 in 10.0 mi Calm Calm - N/A   Clear
9:53 PM 42.1 °F 37.9 °F 85% 30.11 in 10.0 mi Calm Calm - N/A   Clear
10:53 PM 41.0 °F 37.9 °F 89% 30.11 in 10.0 mi Calm Calm - N/A   Mostly Cloudy
11:53 PM 39.9 °F 37.0 °F 89% 30.12 in 10.0 mi Calm Calm - N/A   Clear